Location: Huntsville
(41.2590°N, 111.7678°W)
Time: 20:54:55
(UTC+00:00)

Vanguard 3 - Pass Details

Date: 19 June 2021
Orbit: 508 x 3261 km, 33.4° (Epoch: 28 July)

Event Time Altitude Azimuth Distance (km) Brightness Sun altitude
Rises 19:44:42 0° 263° (W) 3,396 10.4 71.9°
Reaches altitude 10° 19:47:20 10° 248° (WSW) 2,746 10.2 71.7°
Maximum altitude 19:52:31 23° 197° (SSW) 2,477 10.3 71.5°
Drops below altitude 10° 20:00:10 10° 151° (SSE) 4,214 11.1 71.0°
Sets 20:05:29 0° 139° (SE) 5,758 11.6 70.6°
